Location: *
(34.5833°N, 50.6500°E)
Time: 17:30:29
(UTC+00:00)

Daily predictions for brighter satellites

Satellite Brightness Start Highest point End
(mag) Time Altitude Azimuth Time Altitude Azimuth Time Altitude Azimuth
Cosmos 1758 Rocket 3.7 14:19:29 10° N 14:23:51 54° E 14:28:13 10° SSE
ASTRO E2 4.4 14:21:26 10° WSW 14:24:55 28° SSW 14:28:23 10° SE
Cosmos 1758 4.4 14:21:59 10° SSW 14:25:51 50° W 14:29:43 10° N
Cosmos 1844 Rocket 3.1 14:23:13 10° SSW 14:28:51 71° WNW 14:34:31 10° NNE
Meteor 1-16 Rocket 4.3 14:28:40 10° S 14:34:08 53° E 14:39:28 10° NNE
SMAP 4.1 14:30:34 10° S 14:35:04 52° W 14:39:38 10° NNW
YAOGAN 1 3.3 14:34:28 10° SE 14:38:16 31° ENE 14:42:04 10° N
SKYMED 2 3.5 14:34:56 10° NNE 14:39:17 77° ESE 14:43:36 10° S
COBE Rocket 4.1 14:36:19 10° N 14:41:30 83° WNW 14:46:32 10° SSW
YAOGAN 6 2.9 14:42:24 10° SSE 14:45:55 45° ENE 14:49:26 10° N
Cosmos 2278 Rocket 2.8 14:42:13 10° SSE 14:47:17 35° ESE 14:52:22 10° NE
Cosmos 1939 Rocket 4.3 14:44:47 10° ESE 14:47:29 18° ENE 14:50:12 10° NNE
CZ-4C R/B 3.1 14:42:11 10° NNW 14:49:48 86° ENE 14:58:12 10° SSE
Cosmos 1844 4.4 14:45:39 10° SW 14:51:14 58° WNW 14:56:54 10° NNE
Cosmos 1726 Rocket 3.8 14:47:00 10° S 14:51:24 75° W 14:55:47 10° N
CZ-3 Stage 3 3.8 14:50:27 10° SSW 14:51:49 12° S 14:52:50 10° SSE
Cosmos 1908 3.7 14:49:57 10° SSE 14:53:35 37° E 14:57:13 10° NNE
Meteor 1-21 Rocket 4.4 14:47:54 10° N 14:53:47 82° W 14:59:30 10° S
Lacrosse 5 rocket 2.0 14:51:13 10° NNW 14:54:43 33° NE 14:57:08 18° E
ATLAS 5 CENTAUR R/B 4.3 14:56:01 10° W 14:58:37 15° NW 15:01:21 10° N
Cosmos 2239 Rocket 4.5 14:54:36 10° N 15:00:47 89° WSW 15:06:54 10° S
Cosmos 2228 4.0 14:57:03 10° SSW 15:01:19 52° W 15:05:36 10° N
Envisat 3.2 14:56:16 10° S 15:01:19 75° WSW 15:06:25 10° NNW
Okean-O 4.2 14:57:38 10° SSW 15:01:46 39° W 15:05:56 10° NNW
Cosmos 2058 Rocket 3.0 14:59:18 10° S 15:03:40 87° WNW 15:08:02 10° N
Cosmos 1821 Rocket 4.3 15:01:34 10° NNW 15:07:37 70° W 15:13:44 10° S
Cosmos 1605 Rocket 4.2 15:02:00 10° N 15:07:53 45° E 15:13:40 10° SSE
CZ-4 R/B 1.5 15:03:48 10° S 15:07:54 84° WSW 15:12:07 10° NNW
Cosmos 1328 3.8 15:04:26 10° N 15:08:20 53° E 15:12:11 10° SSE
Cosmos 1727 Rocket 4.4 15:03:09 10° SSE 15:08:47 38° E 15:14:24 10° NNE
ADEOS Rocket 4.4 15:03:39 10° NE 15:09:07 21° E 15:14:17 10° SE
ATLAS 3B R/B 4.4 15:07:10 10° SE 15:07:45 11° SE 15:07:45 11° SE
Cosmos 921 Rocket 4.3 15:08:10 10° SW 15:12:28 44° WNW 15:16:47 10° N
Shenzhou-11 Module 4.1 15:10:59 10° NW 15:12:46 15° N 15:13:36 14° NNE
CSL-04 Rocket 3.6 15:07:59 10° SSE 15:13:32 81° ENE 15:19:04 10° N
OAO 3 Rocket 3.2 15:11:20 10° W 15:16:17 87° N 15:18:50 29° E
NOAA 11 4.3 15:13:27 10° SSE 15:18:42 51° ENE 15:23:57 10° N
CZ-3 Stage 3 1.5 15:13:35 10° WSW 15:18:51 42° S 15:19:34 33° SE
DMSP B5D1-3 4.4 15:15:32 10° NNE 15:20:41 84° ESE 15:25:49 10° SSW
Cosmos 1934 Rocket 4.0 15:14:31 10° N 15:20:53 88° W 15:27:16 10° S
Abrixas rocket 3.1 15:25:32 10° WSW 15:28:27 41° NNW 15:29:14 33° N
OAO 2 Rocket 3.4 15:23:39 10° W 15:28:58 88° N 15:31:06 37° E
EO 1 Delta rocket 3.8 15:25:19 10° S 15:30:04 84° WSW 15:34:43 10° N
USA 238 DEB 3.6 15:23:46 10° SSW 15:30:16 60° ESE 15:36:05 14° NE
USA 238 3.6 15:23:53 10° SSW 15:30:23 60° ESE 15:36:06 15° NE
CZ-2D R/B 3.1 15:31:44 13° SSE 15:35:07 83° ENE 15:38:59 10° N
Cosmos 1833 Rocket 3.5 15:31:51 10° N 15:36:24 30° NE 15:36:24 30° NE
Cosmos 1726 4.4 15:37:54 10° SW 15:41:01 26° WNW 15:44:08 10° NNW
Ariane Rocket 2.8 15:39:22 13° SSE 15:43:54 74° ENE 15:48:59 10° N
USA 234 3.5 15:42:38 37° E 15:44:21 44° SE 15:50:32 10° SSW
SL-4 R/B 1.7 15:41:28 10° NW 15:45:03 76° WSW 15:45:03 76° WSW
OAO 3 Copernicus 4.4 15:45:15 10° WSW 15:50:12 56° SSE 15:50:32 55° SE
Cosmos 839 Rocket 4.1 15:49:30 10° NNW 15:55:53 86° ENE 16:00:10 27° SSE
Cosmos 2082 Rocket 3.5 15:51:24 10° N 15:54:33 25° NNE 15:54:33 25° NNE
NOSS 3-2 (A) 3.1 15:51:19 10° SSW 15:56:53 77° ESE 15:58:54 43° NE
COSMOS 2406 3.3 15:51:49 10° NNW 15:57:36 78° WSW 16:00:50 27° SSE
Cosmos 1153 Rocket 4.3 15:54:46 10° N 16:00:55 80° E 16:05:11 21° S
MOS 1 4.1 16:03:25 66° ESE 16:04:02 73° ENE 16:09:41 10° N
IRS-1A Rocket 4.2 16:01:22 26° S 16:04:38 83° WSW 16:10:10 10° NNW
Cosmos 1812 Rocket 3.9 16:01:20 10° SSW 16:05:40 62° W 16:10:04 10° N
Lacrosse 5 4.0 16:03:56 10° N 16:05:32 15° N 16:05:32 15° N
Cosmos 1777 Rocket 4.1 16:05:59 10° NNW 16:11:11 73° WSW 16:11:51 64° SSW
H-2A R/B 4.0 16:16:45 18° N 16:16:45 18° N 16:18:13 10° N
NOSS 3-2 (C) 4.0 16:13:36 10° SSW 16:17:07 41° S 16:17:07 41° S
BREEZE-M DEB (TANK) 4.5 16:18:54 10° W 16:26:48 29° NW 16:27:50 26° NNW
Cosmos 2278 Rocket 4.0 16:26:32 10° WSW 16:31:20 28° WNW 16:36:10 10° N
Lacrosse 5 rocket 3.7 16:30:41 10° WNW 16:32:50 19° WSW 16:32:50 19° WSW
ADEOS Rocket 3.7 16:47:29 10° N 16:55:04 65° WNW 17:02:05 10° SSW
ATLAS 3B R/B 4.3 16:53:01 10° SSW 16:55:07 22° SSW 16:55:07 22° SSW
Cosmos 2333 Rocket 3.8 23:42:22 30° ENE 23:42:22 30° ENE 23:45:29 10° NE
